Regional Weather Roundup
Issued by NWS Charleston, SC

Current Version | Previous Version | Text Only | Print | Product List | Glossary Off
Versions: 1 2 3 4 5 6 7 8 9 10 11 12 13 14 15 16 17 18 19 20 21 22 23 24 25 26 27 28 29 30 31 32 33 34 35 36 37 38 39 40 41 42 43 44 45 46 47 48 49 50

000
ASUS42 KCHS 290727
RWRCHS

REGIONAL WEATHER ROUNDUP
NATIONAL WEATHER SERVICE CHARLESTON SC
300 AM EDT SAT AUG 29 2015

NOTE: "FAIR" INDICATES FEW OR NO CLOUDS BELOW 12,000 FEET WITH NO
SIGNIFICANT WEATHER AND/OR OBSTRUCTIONS TO VISIBILITY.

NOT ALL STATIONS ARE QUALITY CONTROLLED BY THE NATIONAL
WEATHER SERVICE. USE DATA WITH CAUTION...ESPECIALLY
DEWPOINT OBSERVATIONS.

SCZ027-030-031-034>040-042>050-290800-
...SOUTHEAST SOUTH CAROLINA...

CITY           SKY/WX    TMP DP  RH WIND       PRES   REMARKS
N CHARLESTON   PTCLDY    71  68  90 N6        30.12F
WATERFRONT PRK   N/A     77  73  87 NE6       30.10S
MOUNT PLEASANT FAIR      72  70  94 CALM      30.12S
JOHNS ISLAND   FAIR      73  72  94 CALM      30.11F
PINOPOLIS        N/A     79  70  73 E10       30.05F
MONCKS CORNER  FAIR      72  64  78 CALM      30.13S
SUMMERVILLE    FAIR      70  70 100 CALM      30.14S
BEAUFORT MCAS  MOCLDY    74  71  91 NE6       30.12F
BEAUFORT ARPT  CLOUDY    73  72  94 NE7       30.10F
HILTON HEAD IS PTCLDY    75  75 100 N7        30.11F
WALTERBORO     MOSUNNY   72  68  88 CALM      30.13F
ALLENDALE      FAIR      72  70  94 CALM      30.12F

...SOUTHERN MIDLANDS AND PEE DEE...

CITY           SKY/WX    TMP DP  RH WIND       PRES   REMARKS
GEORGETOWN     NOT AVBL
KINGSTREE      NOT AVBL
ORANGEBURG     PTCLDY    66  63  90 CALM      30.15F
BARNWELL       FAIR      70  66  88 CALM      30.15S
AIKEN          FAIR      63  59  88 NE3       30.19F
MANNING        FAIR      64  63  94 CALM      30.14F
COLUMBIA       PTCLDY    65  59  81 CALM      30.16S
SUMTER         CLEAR     64  60  85 NE6       30.14F
FLORENCE       CLEAR     67  63  87 CALM      30.15F
MYRTLE BEACH   CLEAR     72  63  73 N5        30.15F
N MYRTLE BEACH CLEAR     69  66  90 N3        30.13F

$$

GAZ063-065-086>088-099>101-113>116-118-119-134>141-150-290800-
...SOUTHEAST GEORGIA...

CITY           SKY/WX    TMP DP  RH WIND       PRES   REMARKS
SAVANNAH ARPT  MOCLDY    74  71  91 N7        30.11F
HUNTER AAF     MOCLDY    76  76 100 VRB5      30.08F
FORT STEWART   MOCLDY    74  72  93 N3        30.08F
STATESBORO     MOCLDY    73  32  22 CALM      30.12F
SYLVANIA       MOSUNNY   73  73  98 E5        30.13F
CLAXTON        NOT AVBL

...CSRA...CENTRAL AND FAR SOUTHEAST GEORGIA...

CITY           SKY/WX    TMP DP  RH WIND       PRES   REMARKS
THOMSON        PTCLDY    69  69 100 CALM      30.19F
AUGUSTA-BUSH   PTCLDY    68  67  96 CALM      30.14F
AUGUSTA-DANIEL PTCLDY    73  64  73 E5        30.16F
SWAINSBORO     FAIR     N/A N/A N/A E5        30.13F
VIDALIA        MOCLDY    73  72  94 E7        30.12S
EASTMAN        FAIR      74  74 100 E3        30.14S
HAZLEHURST     FAIR      75  75 100 NE7       30.09F
ALMA           CLOUDY    74  72  93 NE3       30.09F
WAYCROSS       CLOUDY    77  77  99 NE3       30.08F
JESUP          FAIR      77  75  94 CALM      30.09F
BAXLEY         FAIR      77  73  88 NE6       30.09F
BRUNSWICK      MOCLDY    72  72 100 CALM      30.08S
SAINT SIMONS   MOCLDY    80  73  79 E5        30.07F

$$

SCZ027-028-034-036>038-045-046-048>050-GAZ119-141-290800-
...LAKE AND SUPPLEMENTAL COASTAL OBSERVATIONS...

STATION/POSITION TIME  TEMP    WIND        PRES    WAVE   SWELL
                       AIR SEA DIR/SP/G            HT/PER HT/PER/DIR
                 (UTC) (F)     (DEG/KT/KT) (MB)    (FT/S) (FT/S/D)
UPR LAKE MARION  NOT AVBL
WINYAH BAY       0645   74     350/  5     1019.0F
LAKE MURRAY      0600   75      CALM  /  4 1021.0F
ACE BASIN NERRS  NOT AVBL
FORT PULASKI     NOT AVBL
SAPELO ISLAND    0600   80      70/  4     1019.0S

$$

ANZ835-935-AMZ111-154-330-350-352-354-370-450-454-472-290800-
...C-MAN AND BUOY OBSERVATIONS...

STATION/POSITION TIME  TEMP    WIND        PRES    WAVE   SWELL
                       AIR SEA DIR/SP/G            HT/PER HT/PER/DIR
                 (UTC) (F)     (DEG/KT/KT) (MB)    (FT/S) (FT/S/D)
BUOY 41004       0650   80 84   50/ 17/ 21 1018.7F   5/ 6   2/ 9
BUOY 41008       0650   82 85  100/  8/ 10 1018.8F   3/ 5   3/ 60/ 5
FOLLY BEACH CMAN 0700   78      30/ 10/ 11 1019.7F
CAPERS NEARSHORE 0608   81      60/ 14/ 17 1020.4F
FRIPP NEARSHORE  0600   81      70/ 14/ 16 1019.4F


STATION/POSITION TIME  TEMP    WIND        PRES    WAVE   SWELL
                       AIR SEA DIR/SP/G            HT/PER HT/PER/DIR
                 (UTC) (F)     (DEG/KT/KT) (MB)    (FT/S) (FT/S/D)
5E ST. MARYS GA  0621      86                N/A     3/ 9   2/100/13
FRYING PAN BUOY  0650   80 81   40/ 17/ 21 1019.6F   5/ 6   2/150/11
BUOY 41025       0650   76 82   30/ 17/ 19 1019.9F   4/10   3/ 80/10
CAPE LOOKOUT NC  0700   77      30/ 14/ 18 1019.8F
BUOY 41002       0650   82 84  210/ 10/ 14 1019.2F   4/11   5/ 80/11
BUOY 41010       0620   83 85  140/ 10/ 12 1018.5F
ST AUGUSTINE FL  0700   82 85  120/  7/  9 1018.4F


$$


USA.gov is the U.S. government's official web portal to all federal, state and local government web resources and services.